BEIDOU-2 G5

Last updated on Sun Apr 12 2026 00:02:52 GMT+0000 (Coordinated Universal Time)

1 38091U 12008A 26101.53239078 .00000061 00000+0 00000+0 0 9994 2 38091 3.4070 70.0689 0012689 265.5017 114.6288 1.00269492 51705
UTC large
Height (km)
Speed (km/s)
/
Latitude / Longitude
Inclination (degrees)
Orbital Period (minutes)
Azimuth
Elevation
Range (km)
Doppler Factor

Next 0 passes for location: London (51.5072 / 0.1276)

Sorry there are no passes over London.
BEIDOU-2 G5